HIMAWARI-9

Last updated on Tue Jan 14 2025 00:02:17 GMT+0000 (Coordinated Universal Time)

1 41836U 16064A 25013.19979917 -.00000275 00000+0 00000+0 0 9995 2 41836 0.0286 135.8054 0001359 167.6899 22.0907 1.00269954 29995
UTC large
Height (km)
Speed (km/s)
/
Latitude / Longitude
Inclination (degrees)
Orbital Period (minutes)
Azimuth
Elevation
Range (km)
Doppler Factor

Next 0 passes for location: London (51.5072 / 0.1276)

Sorry there are no passes over London.